Simultaneous Nadir Overpasses (SNOs) Predictions

Prediction of SNOs between NOAA-19 and NPP Satellite Orbit:

Table of predicted SNOs for the next 14.0 days since TLE Epoch: 5/16/2015
Index Date (NOAA-19) Time (NOAA-19) Lat,Lon (NOAA-19) SZA (NOAA-19 ) Date (NPP) Time (NPP) Lat,Lon (NPP) SZA (NPP ) Distance(km) Time Diff (sec)
1 05/18/2015 21:09:32 -81.02, -9.37 115.13 05/18/2015 21:10:38 -81.02, -9.40 115.16 0.56 66
2 05/18/2015 22:00:35 81.02, 157.81 64.88 05/18/2015 22:01:24 81.03, 157.67 64.88 2.66 49
3 05/18/2015 22:51:35 -81.02, -35.00 115.13 05/18/2015 22:52:08 -81.02, -34.81 115.17 3.18 33
4 05/18/2015 23:42:37 81.01, 132.57 64.83 05/18/2015 23:42:53 81.01, 132.62 64.81 0.94 16
5 05/19/2015 00:33:37 -81.02, -60.25 115.18 05/19/2015 00:33:38 -81.02, -60.23 115.18 0.54 1
6 05/19/2015
